This demonstration page uses our WeatherBlox Daily Observations layout. Learn more.

Left ArrowRight Arrow

40.92945, -100.16068

Hourly Observations for October 8, 2021

Temp ( °F °C ) Dew Point ( °F °C ) Humidity (%) Winds ( mph kmh ) Pressure ( in mb ) Visibility ( mi km ) Precip ( " mm )
12:15 am 00:15 Clear 54 12.3 52 11 92 92 E 3 6 29.94 1014 10 16 N/A
12:35 am 00:35 Clear 55 12.8 52 11.3 91 91 E 3 6 29.94 1014 10 16 N/A
12:55 am 00:55 Clear 55 12.5 52 11.1 91 91 N N/A 29.93 1013 10 16 N/A
1:15 am 01:15 Clear 55 12.5 52 11 91 91 E 3 6 29.93 1013 10 16 N/A
1:35 am 01:35 Clear 54 12.4 51 10.7 89 89 N N/A 29.93 1014 10 16 N/A
1:55 am 01:55 Clear 53 11.9 51 10.6 92 92 N N/A 29.93 1014 10 16 N/A
2:15 am 02:15 Clear 53 11.4 51 10.4 94 94 N N/A 29.94 1014 10 16 N/A
2:35 am 02:35 Clear 52 11.2 50 10 92 92 N N/A 29.94 1014 10 16 N/A
2:55 am 02:55 Clear 51 10.8 50 9.8 94 94 E 5 7 29.94 1014 10 16 N/A
3:15 am 03:15 Clear 52 11.2 50 10.2 94 94 N N/A 29.94 1014 10 16 N/A
3:35 am 03:35 Clear 51 10.5 49 9.6 94 94 N N/A 29.95 1014 10 16 N/A
3:55 am 03:55 Clear 50 10 49 9.3 95 95 N N/A 29.95 1014 7 11 N/A
4:15 am 04:15 Clear 49 9.7 48 8.9 95 95 N N/A 29.94 1014 10 16 N/A
4:35 am 04:35 Clear 49 9.7 48 8.8 94 94 N N/A 29.93 1014 10 16 N/A
4:55 am 04:55 Clear 49 9.3 47 8.6 95 95 N N/A 29.95 1014 7 11 N/A
5:15 am 05:15 Clear 48 9 47 8.5 97 97 WNW 5 7 29.95 1014 7 11 N/A
5:35 am 05:35 Clear with Mist and Fog 48 8.8 47 8.3 97 97 WNW 3 6 29.95 1014 5 8 N/A
5:55 am 05:55 Clear with Mist and Fog 48 9 47 8.5 97 97 N N/A 29.96 1015 5 8 N/A
6:15 am 06:15 Clear with Mist and Fog 47 8.5 47 8.1 97 97 WNW 3 6 29.97 1015 5 8 N/A
6:35 am 06:35 Clear with Mist and Fog 47 8.1 46 7.7 97 97 WNW 5 7 29.98 1015 5 8 N/A
6:55 am 06:55 Clear with Mist and Fog 47 8.6 47 8.1 97 97 W 3 6 29.98 1015 5 8 N/A
7:15 am 07:15 Clear with Mist and Fog 47 8.2 46 7.8 97 97 N N/A 29.99 1016 4 6 N/A
7:35 am 07:35 Clear with Mist and Fog 46 7.8 46 7.5 98 98 N 5 7 29.98 1015 4 6 N/A
7:55 am 07:55 Sunny with Mist and Fog 46 7.9 46 7.6 98 98 W 3 6 29.99 1016 4 6 N/A
8:15 am 08:15 Sunny with Mist and Fog 47 8.2 46 7.8 97 97 N N/A 29.99 1016 4 6 N/A
8:35 am 08:35 Sunny with Mist and Fog 49 9.3 48 8.9 97 97 WNW 5 7 30.00 1016 4 6 N/A
8:55 am 08:55 Sunny with Mist and Fog 51 10.8 50 10.1 95 95 N N/A 29.97 1015 5 8 N/A
9:15 am 09:15 Sunny 54 12.4 52 11.3 93 93 N N/A 29.96 1015 7 11 N/A
9:35 am 09:35 Sunny 56 13.6 53 11.9 90 90 N N/A 29.95 1014 10 16 N/A
9:55 am 09:55 Sunny 58 14.6 54 12.4 87 87 WNW 3 6 29.94 1014 10 16 N/A
10:15 am 10:15 Sunny 60 15.6 55 12.7 83 83 N N/A 29.93 1014 7 11 N/A
10:35 am 10:35 Sunny 63 17.4 55 12.9 75 75 N N/A 29.92 1013 10 16 N/A
10:55 am 10:55 Sunny 67 19.3 56 13.6 70 70 N N/A 29.91 1013 10 16 N/A
11:15 am 11:15 Sunny 69 20.6 57 14 66 66 N N/A 29.90 1012 10 16 N/A
11:35 am 11:35 Sunny 73 22.9 57 14.1 58 58 ENE 3 6 29.88 1012 10 16 N/A
11:55 am 11:55 Sunny 75 23.7 55 12.7 50 50 N N/A 29.86 1011 10 16 N/A
12:15 pm 12:15 Sunny 75 24.1 55 12.5 48 48 ENE 3 6 29.85 1011 10 16 N/A
12:55 pm 12:55 Sunny 79 26 53 11.8 41 41 ENE 3 6 29.82 1010 10 16 N/A
1:15 pm 13:15 Sunny 80 26.8 53 11.9 40 40 ESE 3 6 29.82 1010 10 16 N/A
1:35 pm 13:35 Sunny 81 27.3 52 11 36 36 SE 3 6 29.80 1009 7 11 N/A
1:55 pm 13:55 Sunny 82 27.7 52 11.3 36 36 N N/A 29.79 1009 10 16 N/A
2:15 pm 14:15 Sunny 82 27.7 51 10.4 34 34 N N/A 29.78 1008 10 16 N/A
2:35 pm 14:35 Sunny 82 27.9 51 10.3 33 33 N N/A 29.77 1008 10 16 N/A
2:55 pm 14:55 Sunny 82 28 50 10.2 33 33 N N/A 29.77 1008 10 16 N/A
3:15 pm 15:15 Sunny 82 27.9 51 10.3 33 33 N N/A 29.76 1008 10 16 N/A
3:35 pm 15:35 Sunny 84 28.7 51 10.6 32 32 S 5 7 29.75 1007 10 16 N/A
3:55 pm 15:55 Sunny 83 28.5 51 10.8 33 33 SSE 5 7 29.75 1008 10 16 N/A
4:15 pm 16:15 Sunny 81 27.4 53 11.5 37 37 ESE 6 9 29.75 1007 10 16 N/A
4:35 pm 16:35 Sunny 82 27.8 53 11.9 37 37 SE 7 11 29.74 1007 10 16 N/A
4:55 pm 16:55 Sunny 82 27.8 52 11.3 36 36 SE 8 13 29.73 1007 10 16 N/A
5:15 pm 17:15 Sunny 83 28.1 52 11.1 35 35 SE 6 9 29.74 1007 10 16 N/A
5:35 pm 17:35 Sunny 80 26.9 52 11.2 38 38 SE 9 15 29.74 1007 10 16 N/A
5:55 pm 17:55 Sunny 79 25.9 50 10.1 37 37 SE 6 9 29.75 1008 10 16 N/A
6:15 pm 18:15 Sunny 77 25.1 51 10.6 40 40 ESE 6 9 29.75 1007 10 16 N/A
6:35 pm 18:35 Sunny 77 24.8 51 10.5 41 41 ESE 5 7 29.75 1008 10 16 N/A
6:55 pm 18:55 Sunny 75 23.7 52 11.1 45 45 ESE 3 6 29.78 1009 10 16 N/A
7:15 pm 19:15 Clear 73 22.9 52 11 47 47 E 3 6 29.79 1009 7 11 N/A
7:35 pm 19:35 Clear 70 21.1 53 11.5 54 54 E 5 7 29.80 1009 7 11 N/A
7:55 pm 19:55 Clear 69 20.8 54 12.1 58 58 E 5 7 29.81 1009 7 11 N/A
8:15 pm 20:15 Hazy 65 18.6 55 12.5 68 68 E 5 7 29.81 1010 5 8 N/A
8:35 pm 20:35 Clear 65 18.3 55 12.5 69 69 ESE 3 6 29.83 1010 7 11 N/A
8:55 pm 20:55 Clear 66 19 54 12.3 65 65 N N/A 29.82 1010 7 11 N/A
9:15 pm 21:15 Hazy 65 18.3 55 12.9 71 71 N N/A 29.82 1010 4 6 N/A
9:35 pm 21:35 Clear 64 18 55 12.8 72 72 N N/A 29.82 1010 7 11 N/A
9:55 pm 21:55 Clear 64 17.8 54 12.4 71 71 SE 3 6 29.81 1010 10 16 N/A
10:15 pm 22:15 Clear 62 16.9 55 12.5 75 75 N N/A 29.83 1010 7 11 N/A
10:35 pm 22:35 Clear 61 16.3 54 12.2 77 77 N N/A 29.83 1010 10 16 N/A
10:55 pm 22:55 Clear 59 15.1 54 12 82 82 ESE 3 6 29.84 1010 10 16 N/A
11:15 pm 23:15 Hazy 60 15.8 54 12.4 80 80 ESE 3 6 29.82 1010 5 8 N/A
11:35 pm 23:35 Clear 59 14.9 54 12.4 85 85 ESE 5 7 29.83 1010 10 16 N/A
11:55 pm 23:55 Clear 60 15.8 55 12.5 81 81 N N/A 29.82 1010 10 16 N/A

Powered by AerisWeather